When you browse on this site, cookies collect data to enhance your experience and personalize the content and advertising you see.
Visit our Privacy Policy to learn more. By continuing to use the site, you agree to this use of cookies and data.
  • In Slovakia
  • List of Countries
  • For 7 days
  • Water Temperature
  • Satellite Maps
  • Weather Map
  • Weather Widgets
  • user-avatar
    Login

    Hourly Weather Encamp

    Today, 21 April, Sunday

    Time Temperature Precipitation Wind Pressure Humidity
    00:00 +4°C° 0 mm 1 mps 623 mmHg 88%
    01:00 +4°C° 0.9 mm 1 mps 622 mmHg 89%
    02:00 +4°C° 0.9 mm 1 mps 622 mmHg 90%
    03:00 +4°C° 0.9 mm 1 mps 621 mmHg 91%
    04:00 +4°C° 0.6 mm 1 mps 621 mmHg 91%
    05:00 +4°C° 0.6 mm 1 mps 621 mmHg 92%
    06:00 +4°C° 0 mm 1 mps 620 mmHg 92%
    07:00 +4°C° 0.4 mm 1 mps 620 mmHg 90%
    08:00 +4°C° 0.4 mm 2 mps 620 mmHg 89%
    09:00 +5°C° 0.4 mm 2 mps 620 mmHg 87%
    10:00 +6°C° 0.1 mm 2 mps 621 mmHg 83%
    11:00 +7°C° 0.1 mm 2 mps 621 mmHg 78%
    12:00 +9°C° 0.1 mm 1 mps 621 mmHg 74%
    13:00 +9°C° 0.1 mm 1 mps 621 mmHg 74%
    14:00 +9°C° 0.1 mm 1 mps 621 mmHg 73%
    15:00 +9°C° 0.1 mm 1 mps 620 mmHg 73%
    16:00 +9°C° 0 mm 1 mps 620 mmHg 76%
    17:00 +8°C° 0 mm 1 mps 619 mmHg 79%
    18:00 +7°C° 0 mm 1 mps 619 mmHg 82%
    19:00 +6°C° 0 mm 1 mps 618 mmHg 84%
    20:00 +5°C° 0 mm 1 mps 618 mmHg 86%
    21:00 +4°C° 0 mm 1 mps 617 mmHg 88%
    22:00 +4°C° 0 mm 1 mps 617 mmHg 87%
    23:00 +3°C° 0 mm 1 mps 616 mmHg 86%

    Tomorrow, 22 April, Monday

    Time Temperature Precipitation Wind Pressure Humidity
    00:00 +3°C° 0 mm 1 mps 616 mmHg 85%
    01:00 +3°C° 0.1 mm 1 mps 616 mmHg 85%
    02:00 +4°C° 0.1 mm 1 mps 615 mmHg 84%
    03:00 +4°C° 0.1 mm 1 mps 615 mmHg 84%
    04:00 +4°C° 0.1 mm 1 mps 615 mmHg 84%
    05:00 +4°C° 0.1 mm 1 mps 614 mmHg 84%
    06:00 +4°C° 0.1 mm 1 mps 614 mmHg 84%
    07:00 +5°C° 0.2 mm 1 mps 614 mmHg 81%
    08:00 +7°C° 0.2 mm 1 mps 615 mmHg 78%
    09:00 +8°C° 0.2 mm 1 mps 615 mmHg 76%
    10:00 +9°C° 0.1 mm 1 mps 615 mmHg 73%
    11:00 +11°C° 0.1 mm 1 mps 615 mmHg 70%
    12:00 +12°C° 0.1 mm 1 mps 616 mmHg 68%
    13:00 +11°C° 0.3 mm 1 mps 615 mmHg 69%
    14:00 +11°C° 0.3 mm 1 mps 615 mmHg 71%
    15:00 +10°C° 0.3 mm 1 mps 614 mmHg 72%
    16:00 +10°C° 0.7 mm 1 mps 614 mmHg 76%
    17:00 +9°C° 0.7 mm 1 mps 613 mmHg 81%
    18:00 +7°C° 0.7 mm 0 mps 613 mmHg 85%
    19:00 +7°C° 0.4 mm 1 mps 612 mmHg 88%
    20:00 +6°C° 0.4 mm 1 mps 612 mmHg 91%
    21:00 +6°C° 0.4 mm 1 mps 612 mmHg 93%
    22:00 +5°C° 0.2 mm 1 mps 612 mmHg 94%
    23:00 +5°C° 0.2 mm 1 mps 612 mmHg 94%

    Day after tomorrow, 23 April, Tuesday

    Time Temperature Precipitation Wind Pressure Humidity
    00:00 +5°C° 0.2 mm 1 mps 611 mmHg 95%
    01:00 +5°C° 0.1 mm 1 mps 611 mmHg 95%
    02:00 +5°C° 0.1 mm 1 mps 611 mmHg 95%
    03:00 +5°C° 0.1 mm 1 mps 610 mmHg 95%
    04:00 +5°C° 0 mm 1 mps 610 mmHg 93%
    05:00 +5°C° 0 mm 1 mps 610 mmHg 92%
    06:00 +5°C° 0 mm 1 mps 611 mmHg 90%
    07:00 +6°C° 0 mm 2 mps 611 mmHg 83%
    08:00 +7°C° 0 mm 2 mps 612 mmHg 76%
    09:00 +9°C° 0 mm 2 mps 613 mmHg 69%
    10:00 +10°C° 0.2 mm 2 mps 613 mmHg 68%
    11:00 +10°C° 0.2 mm 3 mps 613 mmHg 67%
    12:00 +11°C° 0.2 mm 3 mps 613 mmHg 66%
    13:00 +11°C° 0.4 mm 3 mps 613 mmHg 66%
    14:00 +10°C° 0.4 mm 3 mps 613 mmHg 65%
    15:00 +10°C° 0.4 mm 3 mps 613 mmHg 64%
    16:00 +9°C° 0.2 mm 3 mps 612 mmHg 70%
    17:00 +8°C° 0.2 mm 3 mps 612 mmHg 76%
    18:00 +7°C° 0.2 mm 3 mps 612 mmHg 82%
    19:00 +5°C° 0 mm 3 mps 612 mmHg 85%
    20:00 +4°C° 0 mm 3 mps 612 mmHg 88%
    21:00 +4°C° 0 mm 2 mps 612 mmHg 90%
    22:00 +4°C° 0 mm 2 mps 612 mmHg 91%
    23:00 +3°C° 0 mm 2 mps 612 mmHg 91%

    24 April, Wednesday

    Time Temperature Precipitation Wind Pressure Humidity
    00:00 +3°C° 0 mm 2 mps 612 mmHg 91%
    01:00 +3°C° 0.1 mm 2 mps 612 mmHg 89%
    02:00 +2°C° 0.1 mm 3 mps 612 mmHg 88%
    03:00 +3°C° 0.1 mm 3 mps 612 mmHg 87%
    04:00 +3°C° 1.5 mm 3 mps 612 mmHg 90%
    05:00 +3°C° 1.5 mm 3 mps 613 mmHg 92%
    06:00 +3°C° 1.5 mm 3 mps 613 mmHg 94%
    07:00 +2°C° 2.4 mm 3 mps 613 mmHg 95%
    08:00 +2°C° 2.4 mm 3 mps 614 mmHg 95%
    09:00 +3°C° 2.4 mm 2 mps 614 mmHg 95%
    10:00 +3°C° 1 mm 2 mps 614 mmHg 91%
    11:00 +2°C° 1 mm 3 mps 614 mmHg 87%
    12:00 +2°C° 1 mm 3 mps 614 mmHg 83%
    13:00 +2°C° 0.1 mm 3 mps 614 mmHg 81%
    14:00 +3°C° 0.1 mm 4 mps 614 mmHg 79%
    15:00 +3°C° 0.1 mm 4 mps 614 mmHg 76%
    16:00 +1°C° 0.1 mm 4 mps 614 mmHg 80%
    17:00 +1°C° 0.1 mm 4 mps 614 mmHg 83%
    18:00 +1°C° 0.1 mm 4 mps 614 mmHg 87%
    19:00 0°C° 0.2 mm 4 mps 615 mmHg 88%
    20:00 0°C° 0.2 mm 4 mps 615 mmHg 90%
    21:00 0°C° 0.2 mm 4 mps 615 mmHg 92%
    22:00 0°C° 0.1 mm 4 mps 615 mmHg 92%
    23:00 0°C° 0.1 mm 4 mps 615 mmHg 92%

    25 April, Thursday

    Time Temperature Precipitation Wind Pressure Humidity
    00:00 +1°C° 0.1 mm 4 mps 615 mmHg 91%
    01:00 +1°C° 0.4 mm 4 mps 615 mmHg 92%
    02:00 +1°C° 0.4 mm 4 mps 615 mmHg 92%
    03:00 +1°C° 0.4 mm 4 mps 615 mmHg 93%
    04:00 +1°C° 1.6 mm 4 mps 615 mmHg 93%
    05:00 +1°C° 1.6 mm 4 mps 615 mmHg 93%
    06:00 +1°C° 1.6 mm 4 mps 615 mmHg 94%
    07:00 +3°C° 1 mm 4 mps 616 mmHg 93%
    08:00 +3°C° 1 mm 4 mps 616 mmHg 92%
    09:00 +3°C° 1 mm 4 mps 617 mmHg 91%
    10:00 +3°C° 0.5 mm 4 mps 617 mmHg 90%
    11:00 +3°C° 0.5 mm 4 mps 617 mmHg 89%
    12:00 +4°C° 0.5 mm 4 mps 618 mmHg 88%
    13:00 +4°C° 0.2 mm 4 mps 618 mmHg 84%
    14:00 +4°C° 0.2 mm 4 mps 618 mmHg 81%
    15:00 +4°C° 0.2 mm 4 mps 618 mmHg 78%
    16:00 +3°C° 0.1 mm 3 mps 618 mmHg 79%
    17:00 +3°C° 0.1 mm 2 mps 618 mmHg 81%
    18:00 +3°C° 0.1 mm 2 mps 618 mmHg 83%
    19:00 +1°C° 0 mm 2 mps 618 mmHg 84%
    20:00 -1°C° 0 mm 2 mps 618 mmHg 85%
    21:00 -3°C° 0 mm 2 mps 618 mmHg 85%
    22:00 -3°C° 0 mm 2 mps 618 mmHg 86%
    23:00 -3°C° 0 mm 2 mps 619 mmHg 86%

    26 April, Friday

    Time Temperature Precipitation Wind Pressure Humidity
    00:00 -3°C° 0 mm 2 mps 619 mmHg 87%
    01:00 -4°C° 0.1 mm 2 mps 619 mmHg 89%
    02:00 -4°C° 0.1 mm 2 mps 619 mmHg 91%
    03:00 -2°C° 0.1 mm 1 mps 619 mmHg 93%
    04:00 -3°C° 0.2 mm 2 mps 620 mmHg 93%
    05:00 -3°C° 0.2 mm 2 mps 621 mmHg 92%
    06:00 -2°C° 0.2 mm 2 mps 622 mmHg 91%
    07:00 -1°C° 0 mm 2 mps 623 mmHg 85%
    08:00 +2°C° 0 mm 2 mps 623 mmHg 78%
    09:00 +3°C° 0 mm 2 mps 624 mmHg 72%
    10:00 +4°C° 0 mm 2 mps 625 mmHg 68%
    11:00 +5°C° 0 mm 2 mps 626 mmHg 64%
    12:00 +6°C° 0 mm 2 mps 626 mmHg 61%
    13:00 +6°C° 0 mm 2 mps 626 mmHg 61%
    14:00 +6°C° 0 mm 2 mps 626 mmHg 61%
    15:00 +7°C° 0 mm 2 mps 627 mmHg 61%
    16:00 +6°C° 0 mm 2 mps 626 mmHg 66%
    17:00 +4°C° 0 mm 2 mps 626 mmHg 70%
    18:00 +3°C° 0 mm 2 mps 626 mmHg 74%
    19:00 +2°C° 0 mm 2 mps 626 mmHg 78%
    20:00 -1°C° 0 mm 2 mps 626 mmHg 83%
    21:00 -2°C° 0 mm 2 mps 626 mmHg 87%
    22:00 -3°C° 0 mm 2 mps 626 mmHg 84%
    23:00 -3°C° 0 mm 2 mps 626 mmHg 80%
    Show more